RH
54 53 53 54 56 58 60 61 60 58 55 54 54 55 54 51 44 37 33 30 29 31 37 43 43 40 39 41 44 46 46 45 43 43 47 45 36 33 32 29 28 25 22 20 19 19 19 19 20 20 20 20 18 19 19 22 29 38 46 52 60 73 86 92 90 86 83 82 79 74 71 69 67 64 62 60 59 58 58 52 40 43 53 54 55 54 53 56
68 66 64 60 58 56 56 58 60 62 62 61 59 58 58 58 57 53 47 41 37 32 30 35 43 47 45 43 44 49 53 54 53 54 54 44 37 39 37 34 32 30 26 23 21 20 20 19 18 19 19 20 19 18 17 18 20 24 31 39 50 67 85 90 83 82 86 89 90 84 79 76 72 68 66 64 63 60 57 49 43 51 55 56 58 52 52 57
78 79 78 74 69 64 60 57 56 57 60 63 64 63 62 61 61 61 59 55 50 44 37 32 32 41 49 51 49 50 55 61 65 68 61 44 41 46 42 38 36 34 32 27 24 22 22 21 19 19 18 19 20 19 18 17 17 18 21 26 34 48 65 74 78 83 86 91 96 94 87 84 77 68 67 67 65 59 52 48 51 57 56 56 55 48 51 56
85 87 87 84 80 75 70 64 60 57 56 58 62 63 63 64 66 65 65 64 62 57 50 43 35 32 38 51 59 59 58 62 69 74 66 52 53 55 46 42 38 37 37 32 29 26 24 23 21 20 18 18 18 19 19 18 18 17 17 19 22 29 40 52 65 79 86 90 96 96 89 86 81 69 64 66 67 60 53 56 61 63 61 57 51 49 53 54
90 90 89 87 84 81 77 72 68 63 59 57 58 61 61 62 64 68 69 68 67 66 61 55 48 40 34 38 53 66 67 67 69 72 69 61 63 62 49 42 39 38 40 38 33 30 28 25 24 22 20 20 18 18 18 19 19 18 17 18 18 20 25 32 43 58 71 80 86 87 81 78 79 69 60 65 69 65 68 73 72 70 64 55 49 52 54 53
84 83 82 80 80 79 78 76 73 70 66 62 59 59 61 60 60 63 69 73 71 69 69 65 58 52 45 37 40 55 68 73 70 70 69 66 68 68 57 45 39 38 39 41 38 34 31 28 26 24 23 22 20 19 18 18 18 18 18 17 17 17 19 21 27 36 47 58 67 74 72 69 72 70 66 71 76 77 82 86 81 73 62 53 48 50 52 52
76 76 77 77 77 77 76 75 74 72 70 68 65 63 62 61 60 58 63 72 76 72 70 71 68 60 55 49 43 43 53 62 67 72 72 68 71 74 68 54 42 37 37 41 41 37 33 31 30 28 26 24 22 21 19 18 17 17 18 18 18 17 18 18 19 23 29 37 46 56 59 58 62 70 77 81 83 81 80 83 84 78 65 54 45 46 50 49
79 79 79 78 76 75 74 72 70 69 69 69 69 69 68 67 64 60 58 63 75 80 74 71 73 70 61 57 53 48 48 49 52 62 68 66 69 77 78 70 56 44 39 40 42 41 35 32 31 31 29 27 25 23 21 18 16 16 17 18 18 18 18 18 18 18 19 24 29 36 42 46 48 59 72 78 76 69 70 75 80 83 72 55 48 46 47 48
84 82 79 76 73 71 70 68 68 67 67 68 69 70 72 73 70 65 60 57 64 77 83 76 72 75 71 64 59 56 59 55 46 46 53 58 61 68 73 69 59 50 43 40 41 40 38 37 37 34 34 33 28 24 22 20 18 18 18 17 17 18 19 18 17 16 16 17 19 23 28 33 37 44 56 62 60 56 65 69 62 72 73 60 55 46 43 49
81 76 72 69 67 66 66 65 66 66 66 66 67 69 70 72 72 70 65 60 57 64 80 84 77 74 76 73 64 64 69 61 52 49 48 50 50 52 57 57 52 50 45 40 41 42 43 46 45 39 35 33 31 28 25 22 21 20 18 17 16 17 18 18 18 16 16 15 15 17 18 22 26 31 38 42 45 47 57 61 49 56 67 61 56 46 38 40
71 68 65 62 59 57 56 57 58 59 62 63 64 66 67 68 69 70 68 64 59 56 65 80 85 76 75 78 73 78 79 62 57 59 55 51 48 45 50 54 54 52 45 37 40 48 52 50 48 43 36 33 33 33 30 27 24 22 20 18 17 17 17 17 18 16 15 15 14 15 15 17 18 21 25 26 32 36 41 46 41 44 53 51 52 49 37 37
62 58 52 48 44 40 39 39 40 43 47 51 55 59 62 65 66 68 69 67 64 59 56 66 82 82 74 77 88 95 84 65 60 61 61 60 55 52 51 55 59 58 48 37 39 49 54 50 44 43 44 41 37 35 34 31 26 22 21 20 18 18 17 17 17 17 16 15 16 15 15 16 17 18 20 19 22 25 27 32 33 34 37 39 44 46 41 47
46 40 33 29 25 24 23 22 23 26 29 32 38 45 51 57 61 64 67 68 68 67 62 57 70 83 77 73 93 106 85 71 69 62 64 66 65 65 61 61 63 63 54 40 38 45 47 43 37 38 44 46 40 35 34 34 30 24 21 21 20 18 18 18 17 16 16 17 17 18 19 18 19 20 18 16 16 18 20 21 24 25 26 30 34 37 38 40
27 22 18 17 15 15 14 15 15 16 18 20 23 28 35 43 52 59 62 65 68 73 72 62 61 74 84 79 81 95 90 82 80 73 72 71 73 73 70 71 69 68 63 47 38 41 42 37 32 33 36 41 42 38 34 33 32 27 23 21 22 21 21 20 18 17 16 17 18 19 22 23 23 22 17 15 15 16 16 15 18 18 20 22 25 27 29 30
15 13 12 12 11 11 11 11 12 12 13 14 16 18 21 27 37 47 55 60 64 71 76 72 63 63 86 94 73 74 93 98 91 85 83 78 79 78 73 75 75 76 74 61 46 40 41 37 31 28 28 35 39 38 35 31 31 30 25 22 24 24 25 24 21 19 17 17 18 18 23 26 26 22 17 15 15 15 13 13 14 14 16 17 18 19 21 22
11 11 10 10 9 9 10 10 9 10 11 11 12 13 15 17 22 30 41 50 55 65 74 75 70 61 79 101 82 65 86 105 96 84 84 86 89 87 80 77 79 82 83 76 60 45 43 40 35 30 27 30 31 33 33 27 27 28 26 25 26 26 27 27 23 21 19 18 17 17 22 27 27 22 17 15 16 15 13 13 14 14 16 13 15 15 15 19
10 9 9 8 8 8 8 9 8 9 9 9 10 10 12 13 14 18 24 35 45 56 68 74 73 68 77 98 94 73 73 93 98 87 86 94 96 90 83 83 83 84 86 84 73 57 47 42 41 36 30 27 26 30 29 25 26 28 31 32 31 29 29 29 25 23 21 18 17 16 21 26 27 22 16 17 17 17 14 14 15 13 15 13 15 14 12 19
8 8 8 7 7 7 7 7 7 8 8 8 8 8 9 9 11 13 15 21 32 44 59 69 72 76 85 95 98 87 72 80 98 99 95 98 101 92 83 85 84 81 82 83 78 67 56 50 49 44 36 29 27 28 28 31 33 32 37 41 39 35 32 32 29 25 22 19 17 16 19 24 27 21 17 20 17 18 17 15 17 14 15 15 14 15 12 16
7 7 7 6 6 6 6 7 6 7 7 7 7 7 7 8 8 10 11 14 20 32 45 58 66 77 90 96 98 96 81 76 91 103 104 104 104 97 90 87 83 79 76 75 73 68 61 57 54 48 40 34 30 29 31 38 40 38 44 48 46 39 34 34 31 28 22 20 18 16 19 24 26 20 18 21 18 18 18 17 18 15 16 16 13 15 11 12
7 6 6 6 6 6 6 6 6 6 6 6 6 7 6 7 8 7 9 10 14 22 31 43 55 69 87 99 103 102 89 76 84 100 107 107 102 94 92 91 84 78 74 72 71 68 62 56 53 52 52 49 42 36 34 39 43 44 46 48 49 42 37 36 33 29 23 20 20 18 19 21 22 19 18 20 18 19 19 18 19 16 17 16 14 14 10 13
7 7 7 6 6 7 6 6 6 6 6 6 6 6 6 6 7 7 7 8 11 15 23 33 45 61 82 99 104 104 96 81 80 96 105 106 101 92 87 88 84 79 77 76 73 69 59 51 52 58 63 61 51 41 36 37 42 46 45 46 49 46 41 38 34 29 22 21 22 20 20 19 18 19 20 20 18 19 19 18 18 17 18 16 15 13 11 13
7 6 6 6 6 6 6 6 6 6 6 6 6 5 6 6 6 7 6 8 9 11 18 25 36 53 74 92 98 99 100 90 82 91 103 106 104 97 89 87 86 85 87 81 71 63 54 51 58 66 70 68 57 44 38 36 38 42 44 45 48 50 46 41 36 29 23 24 25 22 21 20 18 19 21 19 17 19 18 17 18 17 18 17 16 14 13 13
5 5 5 5 6 5 6 6 6 7 6 6 7 5 6 6 6 6 6 8 8 8 11 17 26 43 67 82 86 94 104 99 86 84 97 106 106 100 88 84 88 91 91 82 71 65 60 64 73 72 70 71 64 52 43 38 34 38 44 46 48 52 49 46 43 32 25 29 29 25 22 20 18 18 19 19 17 17 18 18 18 18 19 18 17 14 15 14
4 4 4 4 4 4 4 5 4 5 6 6 6 6 6 6 6 6 6 7 8 8 8 12 17 32 60 67 66 89 107 102 89 81 89 102 106 103 88 80 84 89 92 88 81 75 73 85 96 90 84 79 74 64 51 41 35 37 45 51 54 55 53 53 48 34 25 30 30 24 21 19 18 18 18 19 18 18 18 20 20 20 20 18 17 14 15 15
4 4 3 3 3 3 3 3 4 4 4 5 5 6 7 6 6 6 7 8 8 7 8 11 13 23 45 49 50 82 105 103 96 87 87 97 107 109 95 81 77 81 91 96 91 84 81 93 103 104 104 98 88 77 64 50 42 41 44 54 64 62 60 58 51 37 26 29 29 23 20 19 18 20 20 20 20 18 19 22 21 20 20 18 18 16 16 16
4 3 3 3 3 3 3 3 3 3 3 4 4 5 6 6 7 7 7 8 7 8 8 10 11 14 28 37 43 72 101 107 101 93 93 98 104 109 98 85 79 78 86 93 93 89 90 96 99 101 105 101 92 85 80 65 48 46 48 56 68 69 66 61 52 40 30 28 29 25 22 20 20 21 21 20 18 18 20 22 22 20 20 19 17 16 17 18
3 3 3 3 3 3 3 3 3 3 3 3 4 4 5 5 7 7 6 7 7 7 7 9 10 10 18 26 32 58 93 102 98 98 102 104 104 106 98 88 85 84 83 84 83 85 94 99 96 97 98 92 82 82 90 74 51 55 59 58 66 71 73 65 51 42 34 30 30 28 24 21 20 21 23 21 17 20 21 21 23 21 21 21 20 19 16 17
3 3 3 3 3 3 3 3 3 3 3 3 4 4 5 5 6 7 6 7 6 6 7 8 9 9 12 17 24 47 73 82 88 98 103 105 104 105 102 91 86 90 86 79 77 83 96 101 96 96 95 91 86 92 100 77 58 70 70 59 63 71 75 64 46 41 36 31 30 30 27 23 19 21 24 22 18 22 23 24 24 22 22 23 26 29 21 17
3 3 3 3 3 3 3 3 3 3 3 3 3 3 4 5 5 6 6 6 5 6 7 7 7 8 10 13 21 40 57 63 72 83 91 102 104 103 106 96 86 91 90 82 83 87 92 101 105 101 97 100 100 106 106 81 72 85 77 63 63 64 67 58 42 38 35 31 31 30 28 25 20 21 25 25 23 24 26 26 24 22 22 21 27 34 26 20
4 4 4 4 4 3 3 3 3 3 3 3 3 3 4 4 5 6 6 6 5 5 6 6 6 7 9 11 17 32 48 55 60 68 79 95 103 103 106 101 92 91 90 85 84 88 97 107 108 99 99 106 106 107 107 96 93 91 74 66 66 59 57 53 42 35 32 34 35 32 30 26 21 22 26 30 30 26 26 27 24 23 21 20 29 35 32 24
4 4 4 4 4 4 4 3 3 3 3 3 3 3 4 4 5 5 6 6 6 5 6 6 6 7 9 11 14 21 34 43 52 64 73 83 96 100 100 102 100 94 93 89 85 88 96 102 98 96 101 108 107 104 105 107 107 93 72 64 63 57 52 48 41 33 31 40 41 35 32 26 22 25 31 36 34 28 26 26 25 23 20 21 29 38 40 28
4 4 4 4 4 4 4 4 4 3 3 3 3 3 3 4 5 5 6 7 7 6 6 6 7 7 8 10 12 16 24 32 42 57 68 74 84 93 96 102 101 94 91 92 94 90 85 87 93 98 104 106 105 101 97 99 101 90 73 60 54 52 50 45 41 36 34 45 46 37 32 26 23 28 32 36 37 30 25 24 24 24 22 23 31 40 39 31
5 5 5 5 4 4 4 4 4 4 4 4 3 3 3 3 4 5 6 7 7 7 6 6 7 7 9 10 10 12 17 25 32 45 59 67 74 83 96 106 102 94 90 91 98 94 84 84 89 91 95 102 105 102 95 92 92 83 64 50 48 51 52 46 41 38 39 50 53 40 32 29 26 28 29 32 36 31 25 23 23 25 25 25 36 51 46 38
6 7 7 6 5 4 4 4 4 4 4 4 4 3 3 3 4 5 6 7 8 8 7 6 7 8 9 10 10 10 13 19 25 34 47 59 67 72 87 103 104 98 92 89 92 95 92 87 84 83 86 96 104 103 100 102 104 97 77 60 54 53 53 49 42 40 44 57 59 44 35 33 30 30 28 29 33 30 25 23 24 26 27 25 35 61 66 52
8 10 10 9 7 5 4 4 4 4 4 4 4 4 3 3 4 5 6 7 8 9 8 7 8 8 9 9 10 10 11 15 21 27 36 50 62 67 79 97 106 104 96 88 85 91 99 99 98 100 99 100 103 103 105 106 104 99 87 76 67 58 54 51 44 41 47 58 58 46 39 35 31 31 29 28 31 31 27 26 29 29 28 27 27 45 68 69
9 12 14 14 11 7 5 4 4 5 4 5 4 4 3 3 4 5 6 7 8 8 9 8 8 9 9 9 10 9 10 14 18 24 29 40 54 65 76 90 101 105 100 94 90 87 92 102 106 107 108 106 103 103 105 103 100 94 78 70 71 64 56 53 47 42 48 58 57 49 44 37 32 31 29 28 30 32 32 31 34 34 29 29 26 31 56 75
9 12 16 18 16 11 7 5 5 4 4 5 4 4 4 3 4 5 6 7 8 9 9 8 8 9 9 9 10 10 10 12 16 22 27 34 47 58 67 80 92 101 102 100 100 93 89 99 105 102 106 109 105 106 106 101 103 101 86 82 84 69 51 48 46 41 46 57 58 52 47 39 33 31 30 31 30 32 37 37 37 38 32 26 26 38 60 74
11 12 17 20 20 16 10 6 5 4 4 4 4 4 4 3 4 5 6 7 8 9 9 8 7 8 10 10 10 11 11 11 14 20 25 32 44 55 62 71 83 95 103 102 102 102 95 95 101 102 103 106 105 107 105 100 103 105 101 103 99 77 57 49 44 40 44 55 60 56 51 41 33 31 31 34 33 33 39 40 40 40 34 24 23 40 65 78
15 16 19 22 23 21 15 9 6 5 4 4 4 4 3 4 4 5 7 7 7 9 9 8 8 8 10 10 10 11 10 11 13 18 26 32 42 54 63 70 77 87 99 102 99 102 99 91 94 100 104 106 106 105 104 103 106 105 98 90 82 75 69 59 51 49 49 56 65 64 57 49 40 34 33 34 35 35 37 42 45 40 31 24 23 32 50 68
17 19 23 26 27 25 19 13 8 5 5 4 4 4 4 4 5 6 7 7 8 9 9 8 8 8 10 10 10 11 11 11 13 16 26 34 39 52 64 71 77 83 94 102 102 100 99 97 100 103 102 98 97 100 103 103 104 104 94 80 72 70 65 56 53 54 54 61 73 72 62 55 46 37 34 34 36 40 40 43 45 40 31 27 28 31 35 48
17 21 26 29 30 29 23 17 12 8 6 5 4 5 5 5 6 7 8 8 8 9 9 8 8 8 9 10 11 13 13 12 13 14 23 33 39 50 64 73 82 88 93 102 107 102 97 103 110 108 98 88 87 99 106 103 103 106 103 98 96 91 82 69 58 55 56 62 72 73 65 57 45 35 32 33 37 43 45 44 43 40 34 31 33 35 31 33
18 20 23 28 32 31 26 21 16 12 9 8 7 6 7 7 8 8 9 9 9 10 10 9 8 8 10 12 12 12 14 13 13 14 20 31 44 57 71 82 87 94 98 100 105 107 101 100 105 106 101 92 90 100 108 104 102 104 106 107 107 104 99 86 71 64 63 63 68 72 67 57 44 35 32 33 37 42 46 45 43 42 39 34 32 32 31 30
19 20 20 27 32 32 29 24 21 16 12 11 10 9 10 9 10 10 10 11 11 10 11 10 9 9 10 13 13 12 14 14 13 14 18 32 56 75 85 91 91 94 103 105 103 106 106 102 100 101 103 104 103 109 111 105 103 106 106 105 103 97 91 84 74 70 69 68 72 76 71 60 51 42 37 37 38 40 45 46 43 44 44 37 31 28 30 33
20 22 24 29 31 30 30 28 24 21 16 14 13 11 12 11 11 12 11 12 13 12 12 11 10 10 11 14 15 14 14 15 14 15 19 34 63 87 95 98 97 98 104 107 101 98 101 104 104 101 103 105 103 103 102 100 103 104 96 91 93 91 85 79 73 68 67 68 72 77 72 63 60 54 45 42 41 38 41 44 45 48 48 40 34 30 28 32
23 23 26 29 30 30 31 30 28 26 19 16 16 13 14 14 13 14 14 13 14 13 13 12 10 10 12 14 16 15 14 15 15 15 20 36 65 92 101 102 105 106 105 105 104 100 101 105 105 103 100 96 89 82 81 87 91 86 76 74 82 86 77 69 65 63 62 62 62 66 66 62 65 63 52 43 42 41 38 39 45 52 51 45 40 35 29 28
27 24 24 27 31 33 31 29 30 31 24 19 18 16 15 15 15 15 16 16 16 15 14 13 12 11 13 15 16 15 14 15 16 15 20 37 59 85 104 107 106 108 105 103 104 102 102 104 103 102 101 101 100 96 91 89 85 77 71 71 80 85 74 65 66 67 64 61 58 58 61 63 64 63 57 48 46 46 42 39 43 50 50 46 43 38 30 26
31 27 25 25 32 36 33 29 29 33 30 23 20 19 17 16 16 17 18 18 18 18 16 14 14 13 14 16 16 16 16 16 16 16 22 38 52 73 100 109 104 104 105 102 103 104 103 103 101 101 103 105 108 109 108 106 99 92 87 85 89 90 79 73 78 76 68 64 61 59 62 64 62 60 59 55 51 50 47 43 43 46 47 44 41 39 35 31
33 28 24 24 29 35 35 31 28 31 33 28 22 21 20 18 18 18 19 19 20 21 18 14 13 12 14 17 17 18 18 17 17 16 23 41 57 72 96 108 104 103 103 101 102 103 103 103 102 101 102 105 106 106 109 112 110 106 102 101 105 103 95 96 96 82 70 68 66 65 67 68 65 60 57 56 55 53 50 47 46 47 46 44 39 39 39 37
32 29 26 25 26 30 33 33 30 29 32 32 27 23 23 22 20 20 20 20 19 21 20 16 13 13 15 18 19 19 19 19 19 17 20 40 66 83 94 103 105 103 102 102 103 102 101 103 104 101 101 104 106 106 107 107 104 105 106 107 111 108 102 106 104 85 74 76 75 73 74 73 69 61 53 51 51 51 50 48 47 47 46 43 39 37 37 38
33 32 29 27 25 28 32 35 34 30 30 32 31 27 25 24 23 21 21 19 19 19 19 18 17 17 20 23 23 21 21 19 20 20 20 40 78 100 97 96 102 103 102 104 104 102 103 103 102 102 102 102 104 105 105 102 98 100 104 107 108 106 102 106 102 85 75 76 73 71 76 80 77 67 59 56 56 58 60 59 56 52 48 44 41 37 35 35
36 36 32 28 25 27 31 34 35 33 29 30 32 30 28 27 25 24 21 20 19 18 19 20 22 23 26 29 28 26 24 22 19 20 24 44 80 99 92 91 101 103 103 105 102 99 101 102 101 103 103 103 104 103 102 103 101 101 103 100 97 101 103 102 92 78 71 72 69 71 82 89 86 78 70 69 71 74 75 73 68 62 56 50 46 42 38 36
36 38 34 31 28 26 30 35 36 35 30 29 30 31 31 29 27 26 23 21 20 19 20 21 25 30 32 33 31 29 28 26 20 20 28 46 75 91 89 91 100 103 103 104 101 97 97 100 102 102 102 102 103 102 102 104 103 103 105 100 95 98 98 90 79 69 66 66 67 74 88 94 91 86 81 79 79 77 75 73 71 67 62 57 51 46 42 38
Wind_Speed
51 51 52 52 52 53 54 55 57 58 59 59 60 60 61 61 61 61 61 60 60 61 62 63 62 61 59 57 55 53 52 52 50 48 50 54 51 48 49 49 51 53 54 57 59 61 63 66 68 68 68 68 70 71 71 71 70 68 63 59 56 56 58 59 59 59 59 59 61 63 64 62 60 56 52 49 46 42 38 37 37 34 34 40 40 38 35 33
55 56 56 57 57 57 57 58 59 60 61 61 62 62 63 63 63 63 63 64 63 63 63 64 64 63 62 60 58 56 55 54 52 52 55 55 50 50 51 50 50 51 52 55 56 58 60 63 66 66 66 66 67 69 70 70 70 68 65 60 57 59 62 62 62 62 62 62 64 66 66 64 60 55 51 50 48 44 40 38 37 36 41 44 38 36 35 32
59 60 61 61 62 63 63 63 63 63 64 64 64 64 65 65 65 65 65 65 66 66 65 64 64 65 64 63 61 60 58 57 55 56 58 55 53 53 52 51 51 50 51 53 53 55 57 60 62 63 64 64 66 67 66 68 68 68 66 61 60 64 65 64 64 65 65 65 67 69 68 64 60 55 52 51 49 45 41 40 40 43 50 48 39 36 35 33
63 64 65 66 67 68 69 69 68 67 67 67 68 67 67 67 67 67 68 68 68 68 67 67 65 65 65 64 64 63 62 61 59 59 59 57 56 55 54 53 52 50 51 51 51 53 55 56 57 59 61 63 66 66 64 65 65 66 65 62 65 68 66 66 67 67 68 67 70 73 68 63 60 56 52 51 49 45 43 43 46 51 54 49 42 38 36 35
67 68 69 70 71 72 73 74 74 73 71 70 71 71 71 70 69 69 69 70 70 70 69 69 68 67 65 65 65 65 65 64 63 62 61 59 58 56 56 55 53 52 52 51 51 52 53 54 54 56 57 60 63 64 63 65 65 64 63 63 67 69 68 69 69 69 70 69 72 73 66 61 60 56 53 52 49 47 48 48 52 56 53 48 43 39 37 38
70 72 73 74 75 76 77 78 78 77 76 74 74 74 74 73 73 72 72 72 72 72 72 71 70 69 67 66 65 66 67 66 65 64 62 60 59 57 57 56 55 54 53 53 52 52 52 52 52 53 54 57 59 61 63 66 65 62 61 63 66 68 69 71 71 71 72 70 71 70 64 60 58 56 53 51 53 55 54 54 58 58 51 47 44 40 39 40
74 75 77 78 79 80 81 81 81 80 79 78 77 78 78 77 76 75 75 74 74 74 74 73 73 72 70 68 66 66 67 67 66 65 64 62 60 59 58 57 57 55 55 55 54 53 53 52 51 51 53 54 56 58 61 64 63 61 60 62 64 66 68 70 72 73 73 71 70 68 63 59 57 55 54 56 61 61 58 58 59 56 51 47 45 41 40 41
78 79 80 81 82 83 83 83 83 82 80 79 80 81 82 82 81 79 78 77 77 76 75 75 75 74 73 71 69 67 66 67 67 66 65 63 61 60 59 58 57 56 56 56 56 55 53 51 50 51 51 53 55 56 58 61 60 59 60 62 64 64 66 69 71 72 72 71 70 67 61 58 56 54 57 63 65 60 59 59 58 55 51 48 46 43 42 42
82 83 84 84 85 85 85 85 84 83 81 80 80 82 84 86 85 84 82 80 80 79 78 76 76 76 75 73 72 68 68 70 68 66 66 64 63 61 60 59 57 56 56 56 56 55 53 51 52 52 51 53 54 54 55 55 54 56 59 63 64 64 65 67 69 70 70 71 69 65 61 59 57 56 61 67 64 59 61 60 56 53 51 49 48 45 44 44
85 86 86 86 86 86 86 86 85 84 83 82 81 81 84 87 88 88 86 83 82 82 81 79 77 77 76 75 72 69 73 76 70 67 67 65 63 61 60 59 58 57 57 57 56 55 54 54 54 54 53 52 51 51 51 50 50 54 58 61 62 63 64 65 66 67 67 68 66 63 61 61 60 59 65 68 63 62 64 61 54 50 49 48 48 47 44 40
87 88 88 88 88 88 88 87 87 86 85 84 83 83 83 85 87 89 89 87 85 84 83 82 80 78 77 76 72 72 79 80 73 71 69 66 64 63 61 60 59 58 58 57 56 55 56 56 57 54 52 51 50 49 49 48 50 52 54 57 59 61 62 63 64 64 63 63 62 61 60 62 61 61 67 69 66 67 67 60 53 49 50 48 49 48 41 36
89 89 89 89 88 88 87 87 86 86 86 86 85 85 85 85 86 88 89 89 88 86 84 84 82 80 78 76 73 77 84 81 76 74 71 68 67 65 64 62 61 60 58 57 56 56 57 58 57 54 51 51 50 49 48 47 49 50 50 52 55 57 59 61 62 63 60 58 58 57 57 58 59 61 67 70 69 69 67 60 53 51 51 48 50 49 45 45
88 87 86 85 84 83 83 83 83 83 84 84 85 86 86 86 86 87 88 90 90 89 86 85 84 82 79 75 76 83 86 81 77 74 72 71 70 69 68 65 64 62 60 58 57 58 58 58 56 53 53 51 50 49 48 47 47 47 48 48 50 53 54 57 61 62 59 56 55 54 53 54 56 60 66 68 69 69 67 60 53 52 51 50 53 55 54 54
84 82 80 79 78 77 76 76 77 77 78 80 82 84 85 86 87 88 89 90 91 90 89 87 85 84 80 77 81 86 85 81 77 74 74 73 73 73 71 69 67 65 63 60 60 59 59 58 56 54 54 51 50 49 48 47 45 44 45 45 45 46 48 54 59 61 59 57 56 53 51 52 55 59 62 65 67 68 65 57 51 53 54 54 57 59 57 53
77 75 74 73 72 71 71 71 71 71 72 74 76 79 81 84 86 88 89 90 91 91 91 89 87 85 81 81 85 86 84 81 78 77 77 76 76 76 75 73 70 68 66 64 63 61 60 58 55 54 53 52 52 50 48 47 44 43 42 40 41 42 44 50 55 57 57 57 58 54 51 52 55 58 59 61 64 64 60 53 50 54 57 58 59 60 58 54
73 72 71 70 69 68 68 67 67 67 68 69 71 73 76 80 83 87 90 90 90 90 91 91 89 86 83 85 88 87 85 83 81 81 80 78 79 79 78 75 73 71 70 68 66 63 61 58 54 53 53 54 53 49 48 46 42 40 38 37 40 42 44 48 51 53 54 57 58 54 52 54 57 59 57 57 58 57 53 48 48 53 57 58 59 60 59 59
71 70 69 67 66 65 65 65 64 65 65 66 68 69 71 74 78 82 86 89 90 90 91 92 91 87 85 88 90 89 87 84 82 81 79 79 81 81 78 75 75 74 73 71 68 65 62 57 53 52 51 51 50 49 47 42 38 37 36 36 39 41 43 45 48 51 54 56 56 54 54 56 60 58 53 51 52 50 46 43 44 50 54 56 58 61 60 61
68 67 65 63 62 61 61 61 61 62 63 64 65 66 68 70 72 75 80 84 87 90 91 93 93 89 88 91 92 90 87 84 83 81 79 80 83 82 78 76 77 76 75 73 69 65 61 56 54 52 49 47 47 47 43 38 37 38 37 37 39 41 42 44 47 50 53 55 55 54 54 57 60 57 51 49 48 45 41 39 41 46 51 53 57 60 60 60
64 62 61 59 57 56 56 56 57 58 59 61 62 63 65 65 67 70 72 76 82 88 91 94 94 92 92 94 94 92 89 85 84 82 81 82 84 82 79 78 78 76 74 73 70 66 62 57 54 50 46 43 43 43 42 42 42 40 40 40 41 42 42 43 46 49 51 51 52 53 54 58 61 56 52 50 47 43 38 36 39 44 48 51 55 58 59 59
60 58 56 54 53 52 51 52 52 53 54 56 58 59 61 61 63 65 67 70 75 83 88 92 94 94 95 96 95 93 91 88 86 84 83 84 85 83 80 79 78 75 73 70 69 68 64 58 52 47 45 43 42 42 43 46 45 42 41 42 42 41 41 43 45 47 49 48 49 52 56 60 60 56 53 51 46 41 37 36 37 41 46 49 52 56 56 57
57 55 53 51 49 48 47 47 48 48 49 51 52 54 56 57 60 62 63 65 70 76 84 89 92 95 97 98 97 96 93 89 87 86 85 85 85 83 80 79 77 73 71 69 69 69 65 57 51 49 48 47 45 44 45 47 46 43 42 42 42 40 40 43 44 46 45 42 45 51 55 59 59 55 53 51 46 40 37 36 36 40 44 47 50 53 54 54
53 51 49 47 45 44 43 43 43 44 45 45 46 49 50 52 55 57 59 62 66 71 78 85 90 94 99 102 101 98 94 90 88 88 87 87 87 83 80 78 75 72 72 71 69 66 61 56 54 53 52 50 48 45 45 46 47 45 42 42 42 40 41 41 42 44 41 39 44 49 53 57 58 56 53 51 45 40 37 36 36 39 43 46 48 50 51 52
50 47 44 42 41 41 41 40 39 39 40 40 41 43 44 46 48 51 54 58 64 68 72 79 85 92 101 105 103 99 95 92 91 90 89 89 87 84 82 78 75 74 74 71 67 63 58 56 58 57 55 53 49 46 44 45 46 44 42 41 40 40 40 40 42 44 41 39 44 49 52 56 57 55 52 49 45 40 38 38 38 40 42 45 46 48 50 51
49 46 42 39 38 37 37 37 36 35 35 36 37 37 39 41 42 45 48 55 63 65 66 73 79 87 101 107 103 99 97 95 94 92 90 89 88 86 83 79 77 77 74 70 67 64 59 59 60 60 57 55 50 47 44 43 42 42 42 40 40 41 41 42 44 45 41 40 44 48 51 53 54 52 50 48 46 42 39 38 39 40 42 44 45 46 48 50
47 45 41 38 35 35 35 34 32 32 31 31 32 33 34 36 38 41 45 52 59 60 61 69 75 84 98 103 99 98 99 97 94 92 91 90 89 88 84 82 80 77 73 71 68 65 61 62 64 61 58 55 52 48 44 41 40 41 42 42 42 43 43 45 46 43 39 38 42 46 48 49 50 50 49 48 47 44 40 40 41 41 42 43 44 45 48 50
44 42 39 36 32 32 32 31 30 29 28 27 28 30 31 33 35 39 44 49 54 56 60 67 73 80 91 95 95 99 101 98 96 94 91 90 90 90 86 83 80 77 75 73 70 66 63 64 64 62 60 57 54 49 44 43 41 39 41 43 45 45 45 47 45 41 37 36 40 43 44 46 47 48 49 48 47 44 41 41 41 41 41 42 43 45 48 51
42 38 35 33 29 28 28 28 28 27 26 24 25 27 28 30 33 37 42 46 50 55 59 66 72 76 83 88 91 98 102 102 100 96 92 91 91 91 88 83 80 79 78 76 72 66 63 64 63 62 61 58 53 48 45 45 41 39 42 45 47 46 46 48 45 40 37 37 39 39 41 45 46 47 48 48 46 44 42 42 42 41 40 40 42 45 48 51
40 35 33 31 29 26 25 25 25 24 24 22 22 24 26 28 31 35 40 45 49 53 56 63 70 72 76 80 84 93 102 105 103 99 96 95 93 91 88 84 82 81 80 76 70 65 64 63 62 61 60 56 52 49 49 47 42 43 46 46 47 48 49 49 44 39 37 36 36 37 40 44 45 45 47 47 46 45 44 43 42 41 40 39 41 43 46 50
40 35 33 31 29 26 23 21 20 20 21 20 20 21 24 25 28 33 37 42 46 49 53 60 66 68 70 74 80 90 101 104 103 102 101 99 95 91 88 86 85 83 81 75 70 69 67 64 63 62 59 55 53 53 53 49 46 49 50 47 48 50 50 49 44 40 37 34 34 36 40 44 43 43 46 47 46 47 46 44 43 41 40 39 40 43 46 48
41 37 35 33 30 27 23 20 17 16 17 18 19 20 22 23 25 29 33 38 41 45 50 55 59 63 66 71 78 88 98 102 102 103 103 100 96 93 91 89 88 85 81 76 73 71 67 65 65 62 58 58 58 57 55 51 51 54 52 48 48 48 50 48 44 39 34 31 33 35 39 42 41 41 45 47 49 50 48 45 43 42 41 40 39 42 45 46
42 39 37 35 33 29 25 21 16 13 12 14 16 18 20 21 22 25 28 32 36 40 45 48 52 58 64 70 76 84 92 98 101 102 102 101 98 96 94 92 89 86 82 77 74 71 69 67 64 60 59 62 62 61 58 54 55 55 51 49 47 46 47 47 43 37 30 29 32 34 38 41 40 42 46 49 51 51 49 47 45 43 41 39 38 41 44 46
43 41 40 39 36 32 28 23 18 13 9 10 13 15 17 19 20 21 23 27 31 35 40 44 48 54 61 69 75 80 86 91 96 100 101 101 99 96 93 90 87 85 82 76 72 70 69 67 63 61 62 63 63 61 58 56 55 54 50 49 46 43 43 43 41 34 28 29 32 34 38 40 40 44 50 52 53 53 51 48 45 43 41 39 37 39 43 46
44 43 43 42 39 35 31 26 21 16 11 8 10 13 14 16 17 19 21 24 28 32 37 42 46 51 58 66 73 77 81 85 91 97 100 101 100 97 93 90 88 85 80 76 73 72 70 68 67 65 62 61 60 59 56 53 53 52 49 47 44 41 39 39 39 35 30 31 32 34 37 37 39 44 50 53 54 54 51 47 45 44 43 40 38 38 41 46
45 45 45 44 42 38 33 29 23 19 14 10 8 10 12 13 15 17 19 22 26 30 35 40 44 49 55 63 69 73 76 80 86 92 97 100 100 98 95 91 88 84 81 80 78 73 69 66 64 61 58 57 58 57 55 53 53 52 49 46 43 39 37 38 39 37 34 33 33 33 34 34 38 43 48 52 53 53 50 47 47 47 46 43 40 39 41 45
47 46 47 47 45 41 35 30 25 20 16 12 8 8 10 11 13 15 18 22 26 30 33 38 43 47 52 59 66 71 73 76 81 87 92 97 98 97 94 90 86 83 82 81 78 73 68 63 60 59 59 59 58 58 58 57 56 54 51 47 42 39 39 40 41 40 38 36 33 32 32 35 39 43 46 49 52 52 50 49 49 49 48 46 44 43 43 45
47 46 47 48 46 43 37 31 26 21 17 13 9 6 7 9 12 14 17 22 26 30 34 38 42 45 49 55 63 67 70 74 78 81 86 91 94 95 93 91 88 85 82 79 75 72 68 64 63 63 62 60 59 60 59 58 56 55 51 46 42 42 42 40 40 40 40 37 34 32 33 36 40 43 44 47 50 52 51 51 51 51 51 49 47 47 46 46
49 45 46 48 47 44 39 33 27 22 18 14 10 6 4 6 9 13 18 23 26 30 34 38 41 44 47 52 58 63 67 71 74 77 80 84 89 92 93 94 92 87 82 78 75 72 69 66 65 64 63 62 62 63 62 59 57 55 49 45 46 46 43 39 39 39 39 36 34 33 36 39 42 42 41 44 49 51 51 52 53 53 54 52 49 47 47 47
52 47 46 47 47 45 40 35 29 23 19 15 11 7 3 3 7 12 17 22 26 29 33 36 40 44 46 49 54 60 64 68 70 72 75 79 84 88 91 92 91 86 82 79 77 73 72 71 68 66 65 65 65 66 64 61 58 55 51 50 49 45 40 38 38 38 38 37 34 34 36 39 41 40 39 42 47 49 51 53 53 55 56 53 48 47 47 47
53 49 46 46 47 46 41 35 29 24 20 15 11 7 3 1 5 9 12 17 23 27 31 34 38 42 44 47 51 56 60 64 66 69 71 74 81 86 88 89 89 86 83 81 78 76 74 72 70 69 68 69 69 67 62 58 57 56 54 52 48 43 40 39 37 36 38 38 35 35 36 37 38 38 38 41 45 48 51 53 53 55 57 54 50 49 49 48
51 48 46 46 46 45 41 35 29 24 20 16 12 8 4 2 3 6 9 14 20 25 29 32 35 39 42 44 47 51 56 60 64 66 68 72 77 82 86 88 88 87 85 81 79 78 76 73 71 72 74 72 68 63 59 57 56 55 53 49 45 42 40 38 36 36 37 37 37 36 36 36 38 39 39 40 43 46 50 52 54 55 57 56 53 51 51 51
49 46 44 43 44 43 40 36 30 25 20 16 13 9 6 5 4 5 8 12 17 21 26 29 33 36 39 41 43 47 52 57 61 64 67 70 73 78 83 86 87 88 87 84 81 79 77 74 73 74 74 69 63 61 60 59 57 55 52 48 45 43 40 37 35 34 35 37 38 37 36 37 39 40 39 39 40 44 48 51 53 55 56 57 55 54 53 53
49 45 41 41 42 42 39 36 32 26 21 18 14 11 9 7 6 5 7 10 14 18 23 26 30 34 36 38 42 46 50 55 59 62 64 67 69 75 81 85 87 87 86 84 82 80 77 76 74 72 69 66 63 64 63 59 57 56 53 50 48 45 42 39 36 35 36 37 38 38 37 37 38 39 38 37 38 42 47 50 51 52 54 58 59 57 55 55
49 46 43 41 41 40 38 36 34 29 23 19 15 12 11 10 8 7 7 9 12 16 20 23 27 32 35 37 40 44 48 53 57 60 63 66 69 74 79 83 86 86 85 84 83 81 78 76 74 70 68 68 68 67 65 61 59 57 54 51 48 45 43 41 39 38 37 37 38 39 37 37 37 38 38 37 37 41 45 49 50 49 51 57 61 60 58 57
48 46 44 41 38 38 37 35 33 30 25 21 16 13 12 12 11 10 9 10 12 14 18 22 26 31 34 36 38 42 48 53 57 60 63 67 70 73 77 81 82 83 83 83 83 81 77 75 73 72 71 72 73 71 67 62 59 56 53 50 48 46 45 44 42 40 39 39 39 40 39 38 37 38 39 38 38 40 44 47 47 46 49 55 58 60 60 58
49 45 42 39 37 37 36 34 33 31 26 21 17 14 13 13 13 13 12 11 12 13 16 20 25 29 32 35 37 41 46 51 56 60 63 67 71 74 75 78 79 80 82 82 81 79 76 73 72 71 70 68 66 62 58 56 55 54 52 50 48 46 46 44 41 39 39 40 41 41 40 38 37 38 39 39 39 40 42 44 44 46 49 52 55 58 60 58
48 45 41 38 35 34 34 32 32 31 27 22 18 15 13 13 15 15 14 12 12 13 15 19 23 27 31 33 36 38 42 48 54 59 63 67 71 73 74 76 78 80 81 81 79 77 75 72 70 69 67 64 59 56 54 54 54 53 51 49 47 46 45 43 40 38 39 39 40 41 39 37 37 38 39 39 39 40 41 43 44 46 49 51 54 57 58 58
46 43 39 36 34 32 32 31 31 30 27 22 18 15 13 13 14 16 15 14 14 14 16 21 25 29 32 33 35 37 40 45 51 57 63 66 69 72 74 76 78 80 80 79 78 76 73 71 70 69 68 66 64 60 58 57 55 53 51 48 47 46 44 41 40 39 39 38 39 40 40 38 37 38 39 40 40 40 42 43 44 46 47 50 53 54 55 55
44 41 38 36 33 30 29 29 29 29 27 22 17 15 13 12 13 15 14 14 16 17 17 22 27 30 33 34 35 37 40 45 51 57 64 68 70 73 75 77 78 79 78 77 77 76 73 71 71 69 67 66 65 63 62 61 58 55 52 50 49 47 44 42 41 41 40 38 39 40 40 37 37 38 40 41 41 41 42 43 44 45 46 48 51 53 53 53
43 42 40 37 33 30 28 27 27 28 27 23 17 14 13 12 11 13 13 14 17 19 20 22 25 28 30 31 32 36 40 46 52 57 63 68 70 72 75 77 78 77 76 76 76 75 73 72 71 69 67 66 65 65 64 62 59 55 53 52 51 48 46 44 44 43 41 39 39 40 39 38 38 38 38 38 38 40 42 42 43 45 46 46 48 51 53 52
44 42 39 36 33 30 28 26 25 26 26 23 18 13 12 11 10 11 13 13 16 18 21 23 24 26 28 28 29 33 38 44 52 58 62 66 69 72 74 76 76 75 74 76 77 77 75 74 71 69 68 66 64 63 62 59 57 54 53 53 51 48 47 46 45 43 41 39 38 38 39 38 37 36 34 32 33 36 39 41 42 43 44 45 46 47 50 52
43 40 38 35 33 30 28 26 24 23 24 22 18 13 11 10 10 10 11 13 15 18 20 23 25 26 28 29 30 32 35 42 50 57 62 66 70 72 73 74 74 74 75 78 79 78 76 74 72 70 68 65 62 60 58 57 56 55 54 53 50 48 48 47 45 44 41 39 37 38 39 38 37 34 32 30 32 35 38 40 41 41 41 42 44 46 48 50
41 38 36 35 33 29 26 24 23 22 21 21 18 13 10 9 9 9 10 12 15 18 21 24 27 28 30 31 33 35 38 42 48 55 62 67 69 69 69 70 72 73 76 79 78 76 74 72 70 68 65 62 60 58 57 57 57 55 54 52 50 49 48 47 45 43 41 39 37 39 40 39 36 34 32 32 34 37 39 39 40 40 40 41 42 45 47 48
Wind_Direction
288 286 284 281 279 277 276 275 273 272 271 269 267 265 263 261 259 257 256 254 252 250 248 247 247 247 247 247 246 246 246 245 244 243 243 243 241 241 241 239 240 240 238 238 237 238 238 238 238 238 238 238 239 239 238 238 238 239 239 236 234 233 233 232 232 231 231 233 235 237 238 239 239 239 241 243 244 243 238 236 235 233 241 245 239 236 237 239
288 287 285 283 282 280 278 276 274 271 269 268 267 265 263 261 259 258 256 255 253 252 249 247 246 245 245 245 245 245 245 245 244 242 242 242 241 241 241 239 239 240 240 239 238 238 239 239 239 239 239 239 240 239 238 238 238 239 238 236 235 235 234 233 232 232 232 233 236 238 239 239 239 238 239 242 243 242 239 238 238 238 243 245 239 235 236 240
288 287 285 283 282 281 280 279 276 273 269 267 265 263 262 261 260 258 256 255 253 252 251 249 247 245 244 243 244 244 243 243 243 242 243 241 240 241 241 240 239 240 241 240 239 239 239 240 240 240 240 240 240 240 239 239 238 238 238 236 235 235 235 234 234 233 233 233 236 238 238 239 240 238 238 242 243 243 242 240 238 238 241 243 240 236 239 241
287 287 285 283 282 281 281 280 278 275 270 267 264 262 260 259 258 257 256 254 253 252 251 250 248 246 244 242 242 242 242 242 241 242 243 241 241 241 241 241 240 240 241 241 240 239 239 240 239 240 239 239 240 240 239 239 238 237 236 235 235 235 235 235 234 234 234 233 235 237 237 238 240 240 239 241 244 244 244 242 241 240 240 241 240 239 241 243
287 286 284 283 281 280 280 280 279 276 272 267 264 261 259 258 256 255 255 254 253 251 250 249 248 247 245 243 241 241 241 241 241 242 243 242 242 242 242 241 240 240 241 241 240 239 240 240 239 239 239 240 240 240 239 238 237 236 235 234 234 235 235 236 235 235 235 234 236 238 238 238 240 241 241 242 244 244 243 242 243 242 240 240 240 239 240 243
287 285 284 282 280 279 279 278 277 276 273 268 264 260 258 257 255 253 253 252 251 250 249 248 247 246 245 244 242 241 240 241 241 242 243 243 243 244 243 242 241 240 240 241 240 240 239 239 239 239 239 239 239 239 239 238 237 235 234 233 233 234 234 235 236 236 236 236 237 239 239 238 240 242 243 244 244 241 239 240 243 243 242 242 241 239 240 243
287 285 283 282 280 279 278 277 275 273 271 267 263 260 258 256 254 252 251 250 250 249 248 247 246 245 244 244 243 242 241 241 241 241 242 242 241 242 243 243 242 241 240 241 241 240 239 238 239 239 239 239 239 239 238 238 237 235 235 234 234 234 234 235 236 236 236 237 238 239 239 239 239 240 242 242 241 240 239 240 243 245 244 244 243 240 239 242
289 287 285 282 281 279 277 275 273 271 268 265 261 258 257 255 254 251 249 248 247 247 247 246 245 244 243 242 242 242 242 242 241 240 240 240 239 240 241 242 242 242 241 241 241 240 239 239 239 239 239 239 239 238 238 238 236 236 236 235 235 234 234 235 236 236 237 237 238 239 239 239 239 239 240 240 240 240 241 240 242 245 245 245 245 241 239 241
291 288 286 284 281 279 277 274 272 270 267 263 259 256 254 253 253 251 249 246 245 245 245 244 244 243 242 241 241 241 242 242 240 240 239 239 238 238 239 240 240 241 241 241 241 240 240 240 240 239 238 238 238 239 239 238 237 236 236 235 235 235 235 235 236 236 237 238 238 239 239 239 239 239 241 242 241 241 241 241 240 242 245 245 246 243 239 239
293 290 287 284 282 279 276 273 271 268 265 262 258 255 252 251 250 250 249 246 243 242 242 242 242 242 241 240 239 239 241 241 239 239 238 238 237 237 238 239 239 239 240 240 240 240 239 238 238 238 237 238 238 239 240 239 237 235 235 235 235 235 236 236 238 237 237 238 239 239 239 239 238 238 241 243 242 241 241 241 239 239 242 243 244 244 240 238
294 291 288 285 281 278 276 273 270 267 264 261 258 254 251 249 248 247 247 246 243 241 239 240 240 240 240 239 238 237 239 239 237 237 237 237 237 236 236 237 238 238 238 238 238 238 238 237 237 237 237 238 238 238 239 238 237 235 235 236 235 236 237 237 239 239 238 238 239 238 238 238 238 238 241 243 242 241 241 241 239 239 239 240 242 244 241 238
294 291 288 284 281 278 275 272 269 266 262 259 257 254 251 248 246 245 244 244 243 241 238 237 238 238 238 238 237 236 238 237 236 237 237 237 237 237 236 236 236 237 237 237 237 237 237 237 236 235 236 237 238 237 237 237 237 236 235 235 235 236 237 237 239 239 239 238 238 238 237 238 238 237 239 241 241 241 242 240 238 238 238 239 242 243 240 237
294 290 287 284 281 278 275 272 269 266 262 259 255 252 249 247 245 243 242 241 241 240 238 235 235 236 236 235 235 236 237 236 235 236 236 237 237 237 237 236 236 236 236 235 235 235 236 236 235 234 234 235 237 237 236 236 236 236 236 235 236 236 237 238 238 238 237 237 237 236 236 237 236 236 238 240 240 241 241 239 238 239 240 239 241 241 239 238
294 290 287 284 281 278 276 273 269 266 263 260 256 252 249 245 243 242 240 239 238 237 237 235 233 234 234 234 234 235 236 235 234 234 235 236 236 237 236 236 236 236 236 235 234 234 235 235 233 232 233 233 235 235 235 235 235 236 236 235 237 237 237 239 238 238 236 235 235 233 233 234 235 236 237 239 241 241 241 239 237 240 240 239 239 240 239 237
294 291 288 285 282 279 276 273 270 267 264 260 257 254 250 246 242 240 238 237 236 235 235 234 233 231 231 233 234 234 234 234 232 232 232 233 234 235 235 234 234 235 235 235 234 233 234 235 234 233 232 232 232 233 235 235 234 235 235 235 237 236 236 238 238 237 235 234 233 231 230 233 235 236 235 237 240 241 241 238 236 238 239 238 238 239 238 236
296 292 289 286 283 280 277 274 270 267 264 260 257 254 251 247 243 239 237 235 234 232 232 233 232 230 229 231 233 233 232 231 231 230 230 231 232 233 233 233 233 233 233 234 233 233 234 235 234 234 233 232 232 232 234 234 233 235 235 234 236 235 234 236 236 235 234 232 231 229 229 232 235 236 235 236 240 242 241 237 234 236 237 237 237 237 236 235
297 293 290 287 284 281 277 274 270 267 263 260 256 253 250 248 245 241 238 235 232 231 229 230 230 229 228 229 231 232 231 230 230 230 230 231 232 233 233 232 232 232 232 233 234 234 234 235 235 236 235 235 233 233 234 235 235 235 234 233 236 235 235 236 235 234 232 231 229 226 226 230 234 236 235 236 238 240 239 234 231 233 235 235 236 236 234 233
298 295 292 289 285 281 277 274 270 267 263 259 256 253 250 247 245 242 239 236 233 230 228 227 228 227 227 228 229 230 230 229 229 229 229 230 232 232 232 232 233 232 232 233 234 235 235 235 236 236 237 236 235 234 234 235 234 232 230 230 233 234 234 235 234 233 231 229 227 225 224 229 233 234 234 235 236 236 234 229 227 229 232 232 233 234 233 232
301 298 295 292 288 283 279 275 271 267 264 260 257 254 251 248 245 243 240 237 234 230 227 226 225 224 225 227 228 228 229 228 227 227 227 228 230 231 231 232 233 232 233 234 235 236 236 236 236 237 238 239 238 235 231 230 230 228 226 227 230 231 232 234 234 233 231 228 227 224 223 227 231 232 232 233 233 232 230 226 224 226 229 230 230 232 231 230
305 302 299 295 291 286 281 277 273 269 265 261 258 254 251 248 245 243 240 236 233 231 229 226 224 222 223 225 226 227 227 226 226 226 226 228 229 229 229 230 232 233 233 234 235 236 237 236 236 237 237 237 237 233 230 229 228 226 226 227 229 231 232 234 235 234 231 227 226 225 223 226 229 230 231 232 232 230 228 225 224 226 228 229 230 231 230 229
308 305 302 298 294 289 284 279 275 271 266 262 259 255 252 248 245 242 239 236 233 230 229 227 224 221 222 224 224 225 225 225 225 225 225 227 228 229 229 230 231 232 233 233 233 234 236 236 236 236 235 234 233 230 228 228 226 226 226 227 229 230 232 234 236 235 231 227 227 226 225 227 228 228 229 231 230 228 228 226 225 227 229 230 230 230 229 227
313 309 305 302 297 292 287 282 277 272 269 264 260 256 252 248 244 241 238 235 233 229 227 226 223 220 220 222 223 223 223 223 223 223 223 225 226 227 227 228 229 230 231 232 232 234 235 236 235 234 233 233 232 230 229 228 225 224 225 227 229 230 232 235 237 236 230 225 227 226 225 226 227 226 226 229 229 227 228 228 227 228 229 229 229 229 228 226
318 314 310 305 300 295 290 285 280 275 270 266 262 257 253 248 244 240 236 233 232 229 225 224 222 219 219 221 221 221 221 221 222 222 222 224 225 225 225 225 226 227 229 230 231 232 232 233 233 233 233 233 233 231 231 230 226 225 226 228 229 231 233 235 237 235 226 222 225 225 223 224 225 225 224 228 229 226 227 229 230 229 229 229 228 228 227 225
323 320 316 311 305 298 293 289 284 279 273 268 263 258 253 247 242 238 234 231 231 228 224 223 222 218 219 220 220 219 219 220 221 221 221 222 223 224 224 223 223 224 226 228 229 228 227 227 229 230 231 232 232 231 231 231 228 226 226 228 230 231 231 233 235 233 225 222 226 225 223 222 224 224 223 225 227 225 224 228 230 230 229 229 228 226 226 224
326 322 319 315 309 302 297 293 287 282 275 269 264 258 252 246 239 235 231 229 229 226 222 222 221 218 218 220 219 217 218 219 219 220 220 220 221 222 222 222 222 222 223 224 226 226 224 224 225 225 227 229 231 231 231 232 229 227 225 226 228 229 230 232 234 232 226 223 227 227 224 222 222 222 222 221 224 224 222 225 229 229 229 228 227 225 223 222
329 324 321 318 313 305 300 296 291 285 279 271 263 257 250 243 236 231 228 225 226 223 219 219 220 218 218 219 217 215 216 217 218 219 219 219 220 220 220 220 221 221 221 222 222 223 222 223 224 224 225 226 228 228 229 230 229 226 225 225 226 228 230 233 233 231 226 223 227 227 225 222 219 219 220 220 221 223 221 224 227 228 228 227 225 223 221 220
333 328 326 324 319 312 304 299 294 289 283 274 264 255 248 241 234 229 226 223 222 220 217 216 218 218 217 217 215 214 214 216 217 216 217 217 218 219 218 218 219 220 221 221 221 220 221 223 224 224 225 226 227 227 228 229 228 227 226 224 225 226 228 232 231 228 224 222 224 226 225 223 217 214 218 219 219 221 222 223 226 226 227 226 224 223 220 218
339 337 335 333 329 322 311 303 296 290 285 276 264 254 247 241 233 227 225 222 220 218 215 214 216 216 215 215 214 213 214 215 215 214 215 216 216 217 217 216 217 218 220 221 220 220 220 222 224 224 224 225 226 226 226 227 225 226 227 224 223 224 227 230 229 226 223 220 221 221 222 223 217 211 214 217 217 219 221 223 224 225 225 224 223 223 220 218
345 346 345 343 338 332 322 311 300 291 286 277 266 254 246 240 233 227 224 223 220 217 215 214 214 214 213 213 213 212 213 215 215 214 214 214 215 215 215 215 216 216 218 218 218 219 219 219 221 222 222 222 222 222 224 224 223 225 226 224 224 224 226 229 228 225 221 218 220 219 220 222 216 209 211 214 217 218 219 221 223 224 224 223 221 222 221 218
351 353 353 351 346 341 334 324 310 295 286 277 266 256 247 240 235 229 225 223 221 217 216 215 213 212 210 210 211 211 212 214 214 214 214 214 214 214 213 213 214 215 216 216 217 218 217 216 218 219 218 217 217 219 221 221 221 225 226 225 225 225 227 228 228 226 220 217 220 219 220 220 213 208 209 212 216 218 217 219 222 223 223 222 220 220 220 218
355 359 360 357 353 349 344 337 325 307 292 278 266 256 249 241 234 230 226 224 222 218 216 215 212 210 207 207 209 210 211 212 213 214 214 214 214 214 213 212 212 213 213 214 216 217 217 217 218 217 217 216 216 217 218 218 220 225 227 227 227 226 228 229 228 226 219 219 222 219 220 219 209 206 209 211 214 217 216 216 219 222 222 222 221 220 219 216
359 3 4 2 358 354 350 345 337 325 307 285 268 255 249 242 233 226 222 220 219 217 215 213 211 209 206 206 208 209 210 211 211 212 213 214 214 214 214 213 212 213 213 213 214 217 219 219 218 216 216 217 218 218 219 220 222 225 227 229 229 228 229 229 228 225 220 222 225 220 219 217 209 208 209 209 212 215 215 214 216 219 222 222 223 222 218 214
1 6 6 5 1 357 353 350 345 337 326 306 278 258 247 242 234 222 214 212 212 212 211 209 207 206 205 206 208 209 209 209 210 211 211 213 214 214 214 213 213 213 212 212 212 215 218 219 218 217 216 217 219 220 222 224 226 228 230 231 231 230 231 231 228 223 219 223 225 222 219 216 213 213 211 210 211 214 214 214 215 217 220 223 224 223 218 213
3 8 8 7 4 0 356 352 349 344 336 326 300 270 249 237 232 221 208 204 205 206 207 206 204 204 203 204 207 208 208 208 209 209 210 211 212 212 212 212 213 213 212 212 212 212 215 219 222 222 219 219 219 220 220 221 224 227 229 231 231 230 230 229 227 221 219 223 225 222 218 215 214 216 214 211 212 213 213 214 217 219 220 221 222 223 220 215
4 9 9 8 6 2 359 355 352 348 342 335 320 287 257 234 223 215 204 198 198 199 201 202 202 202 201 203 205 206 206 207 208 208 209 209 210 211 211 211 212 213 214 214 213 212 212 214 218 220 219 218 217 217 218 219 221 224 225 227 228 229 229 227 224 219 218 222 222 218 217 215 214 216 215 212 211 213 213 215 219 221 221 219 219 221 222 219
4 9 10 9 6 3 1 358 355 352 349 343 334 307 268 240 219 207 199 196 195 194 195 197 198 200 200 201 204 205 205 205 206 207 208 208 208 208 209 210 211 212 213 214 214 214 212 210 211 214 216 217 216 216 217 219 222 225 226 227 227 227 227 226 224 220 218 221 219 215 215 215 215 215 214 211 210 211 213 216 219 222 222 218 217 220 222 220
2 9 12 10 8 5 2 0 359 356 354 353 346 331 286 245 222 205 196 193 192 192 193 193 194 196 198 200 202 203 203 204 205 206 206 206 207 207 207 208 210 211 211 212 212 213 213 210 209 211 213 214 214 215 215 216 219 222 224 225 226 227 226 224 224 222 220 221 219 216 215 216 215 213 212 212 210 210 212 216 219 222 223 219 215 217 221 220
1 6 11 11 9 7 5 2 1 0 360 0 359 350 318 234 216 209 202 194 189 189 191 191 191 192 195 198 200 201 201 202 203 204 204 204 205 206 206 207 208 208 209 211 210 210 212 211 209 209 210 212 213 214 215 214 216 218 219 220 223 227 227 226 225 223 220 220 219 219 218 219 218 213 210 212 211 210 212 216 219 223 223 220 215 216 220 220
360 3 9 11 10 8 7 4 3 4 4 6 9 10 7 197 197 204 206 199 190 188 189 190 191 191 192 195 198 199 200 200 201 202 201 201 202 203 204 206 207 207 208 209 210 209 211 212 210 208 208 211 212 213 214 215 216 218 219 221 224 226 226 225 225 224 222 219 219 221 220 220 221 217 212 211 211 210 212 216 220 223 223 220 217 217 220 221
360 3 7 10 10 8 7 7 7 7 9 12 18 25 38 95 162 183 194 197 194 189 187 188 189 189 191 193 195 197 198 198 199 199 199 199 200 200 201 203 204 205 206 207 208 209 210 211 211 210 209 210 212 212 213 214 216 219 222 224 227 229 229 227 226 225 224 220 218 220 220 219 220 218 214 210 210 211 213 216 220 222 222 222 220 219 220 222
1 3 6 10 11 9 8 9 10 12 15 19 27 37 52 79 109 154 177 187 192 190 186 186 186 187 190 190 191 193 195 196 197 197 197 197 198 198 199 201 202 203 205 205 206 209 209 209 210 212 213 212 211 211 211 212 214 217 218 220 223 226 229 230 229 229 227 222 219 220 220 220 220 218 214 210 208 211 215 218 220 222 224 223 222 221 221 223
2 3 7 11 13 11 9 10 12 15 19 24 32 46 61 76 94 125 155 170 184 188 184 183 183 184 185 187 189 190 192 194 194 195 195 194 195 196 198 200 201 202 203 205 205 207 208 208 209 211 213 213 211 211 210 210 212 214 214 215 217 220 223 225 226 227 227 223 220 220 220 221 222 220 216 212 210 210 215 219 221 222 225 226 224 222 222 223
1 2 6 11 13 12 11 13 13 14 19 26 33 48 64 75 86 104 129 151 171 180 179 178 179 180 181 184 187 188 188 190 192 192 192 191 192 195 197 198 200 201 202 204 205 205 206 208 208 208 209 210 210 209 209 208 210 212 213 213 216 219 222 223 222 223 224 222 219 219 220 221 223 222 219 216 214 212 213 218 221 222 225 227 226 224 223 224
2 3 4 7 11 13 13 15 15 13 17 25 32 45 62 73 83 94 112 135 155 168 171 172 176 178 179 180 183 186 187 187 188 190 190 189 189 192 195 197 199 200 201 203 205 206 206 206 207 207 208 210 210 209 208 208 209 211 213 214 216 219 221 223 223 223 224 222 218 217 218 218 220 224 223 218 216 215 215 217 219 222 225 227 229 228 225 224
2 2 2 3 9 14 14 16 18 15 15 21 31 44 60 73 84 90 101 120 139 155 163 168 172 175 175 177 180 184 186 186 185 186 188 188 188 190 193 195 196 198 200 202 204 205 205 205 206 208 210 213 216 216 214 212 213 214 216 216 217 220 223 224 226 227 227 226 221 217 216 217 219 223 225 221 218 218 218 217 218 222 225 226 229 231 228 225
0 0 0 2 8 13 14 17 20 17 14 19 28 40 56 74 85 89 96 109 124 142 155 161 166 170 172 175 179 182 184 185 184 183 186 188 188 188 191 193 194 196 199 201 202 204 204 204 205 207 209 211 213 216 215 215 216 217 218 218 219 221 225 226 227 229 230 229 226 220 217 217 219 222 224 224 222 221 220 219 220 224 225 225 227 231 231 229
360 359 359 2 6 10 13 18 23 21 15 16 26 38 51 70 84 91 98 109 120 134 151 157 162 168 171 174 177 178 181 183 182 181 183 187 189 188 189 191 193 195 197 199 200 202 203 203 204 205 207 208 208 208 209 210 212 214 215 217 218 221 225 226 227 230 231 230 227 222 218 219 220 221 223 225 225 224 223 222 223 226 227 226 226 230 232 233
358 358 0 3 4 8 13 18 24 25 18 14 23 37 48 64 82 93 101 114 125 134 150 161 165 169 171 173 174 175 177 180 181 181 182 185 189 189 188 190 192 194 196 197 199 200 200 202 203 204 206 208 208 207 207 207 208 209 211 213 215 218 221 222 224 227 229 228 226 222 219 220 222 222 222 223 224 225 225 224 225 228 230 228 225 226 230 233
357 359 1 2 1 4 10 16 23 27 22 15 19 36 49 60 78 93 103 116 128 137 149 159 165 167 169 170 172 173 176 178 179 181 182 185 188 189 189 189 191 193 194 196 198 198 199 200 202 203 204 207 209 209 209 209 208 208 209 211 213 215 217 219 221 224 226 226 224 221 219 220 223 225 224 224 225 227 227 227 228 229 231 231 228 225 227 230
357 360 360 359 359 2 7 13 20 27 26 19 17 30 49 60 74 91 104 117 129 138 147 154 159 163 164 166 170 173 176 178 179 180 183 184 186 189 190 190 191 191 193 196 198 197 198 200 201 202 204 206 208 210 211 211 211 210 211 213 213 214 216 219 222 225 226 225 223 218 217 220 224 227 228 228 229 230 231 231 231 231 231 232 232 229 227 228
355 357 358 359 0 2 5 10 16 24 29 25 18 24 44 59 72 88 104 118 128 135 143 149 154 159 161 164 167 170 174 178 180 181 182 184 186 190 192 190 189 190 194 198 199 198 198 199 200 202 204 205 207 209 210 211 211 211 213 214 214 213 216 219 224 227 227 226 222 217 216 219 223 227 228 229 230 232 231 231 232 232 231 231 232 233 231 229
353 355 357 359 0 2 4 9 12 18 27 31 26 24 38 57 73 88 103 119 130 137 144 150 155 160 163 165 167 167 171 178 181 182 182 184 187 190 192 191 189 191 196 199 199 198 199 200 201 202 204 205 207 208 208 210 210 211 214 216 216 215 216 220 224 227 228 227 223 218 216 217 220 225 229 230 232 233 233 232 232 232 231 231 231 232 232 231